Total_Precipitation_Accumulation
1.90 2.23 2.37 2.30 2.26 2.31 2.14 2.08 2.19 2.19 2.16 2.26 2.29 2.29 2.27 2.38 2.57 2.79 2.72 2.86 2.98 3.03 3.01 2.94 2.86 2.90 3.04 2.94 3.08 3.26 3.51 3.76 3.46 3.06 2.89 2.84 2.88 2.75 2.58 2.26 1.99 1.86 1.70
2.18 2.53 2.69 2.48 2.26 2.12 1.94 1.90 2.02 2.19 2.23 2.24 2.26 2.25 2.15 2.24 2.50 2.66 2.75 2.99 3.12 3.01 2.93 2.92 2.79 2.91 3.01 2.97 3.05 3.04 3.15 3.48 3.37 3.11 3.03 3.07 2.97 2.80 2.69 2.53 2.15 1.93 1.93
1.99 2.36 2.42 2.19 1.98 1.95 1.92 1.93 2.03 2.19 2.22 2.21 2.25 2.28 2.34 2.46 2.62 2.75 2.84 3.01 2.98 2.86 2.88 2.81 2.67 2.78 2.70 2.77 2.82 2.83 2.84 2.97 3.18 3.06 2.94 3.02 2.94 2.80 2.75 2.62 2.51 2.57 2.32
1.60 1.93 1.93 1.78 1.74 1.79 1.81 1.84 1.84 1.94 2.00 2.06 2.24 2.42 2.54 2.68 2.76 2.81 2.83 2.79 2.77 2.66 2.54 2.47 2.48 2.62 2.72 2.72 2.63 2.61 2.69 2.84 2.96 3.00 2.95 3.04 3.06 3.08 2.99 2.84 2.84 2.78 2.58
1.54 1.78 1.76 1.68 1.72 1.70 1.68 1.79 1.85 1.89 1.92 2.17 2.33 2.41 2.45 2.47 2.53 2.73 2.69 2.56 2.54 2.41 2.30 2.13 2.16 2.50 2.65 2.63 2.42 2.53 2.61 2.67 2.76 2.90 2.94 3.04 3.12 3.35 3.17 2.89 2.78 2.84 2.68
1.47 1.73 1.72 1.63 1.61 1.55 1.62 1.75 1.87 1.95 2.12 2.30 2.29 2.28 2.24 1.89 2.00 2.17 2.18 2.17 2.21 2.19 2.06 1.99 1.98 2.06 2.09 2.14 2.16 2.18 2.25 2.33 2.54 2.85 2.93 2.93 2.90 3.01 3.14 3.07 2.99 2.90 2.79
1.51 1.74 1.78 1.70 1.66 1.63 1.59 1.77 1.97 2.18 2.36 2.45 2.39 2.32 2.15 2.01 1.91 1.80 1.79 1.83 1.98 2.00 2.02 2.08 1.79 1.60 1.75 1.77 1.93 1.93 1.88 1.99 2.14 2.41 2.59 2.62 2.73 2.75 3.05 3.10 3.16 3.16 3.08
1.49 1.72 1.81 1.79 1.83 1.93 1.94 2.01 2.20 2.44 2.60 2.60 2.55 2.44 2.31 2.18 2.08 1.89 1.87 1.78 1.86 1.88 1.89 1.93 1.87 1.74 1.70 1.82 1.93 1.88 1.73 1.69 1.70 1.67 1.88 2.17 2.44 2.73 2.82 2.91 3.05 3.13 3.12
1.45 1.69 1.85 1.92 2.02 2.05 2.11 2.37 2.57 2.74 2.77 2.71 2.76 2.65 2.51 2.46 2.29 1.94 1.77 1.68 1.82 1.85 1.86 1.80 1.74 1.67 1.75 1.64 1.60 1.62 1.64 1.62 1.46 1.47 1.55 1.76 2.00 2.11 2.34 2.60 2.83 2.83 2.77
1.82 1.97 2.22 2.41 2.57 2.65 2.72 2.77 2.84 2.95 2.90 2.90 2.81 2.76 2.62 2.55 2.45 1.94 1.67 1.58 1.77 1.81 1.86 1.79 1.66 1.51 1.51 1.42 1.38 1.51 1.52 1.52 1.58 1.54 1.44 1.45 1.52 1.69 1.81 1.89 2.21 2.44 2.36
2.23 2.31 2.56 2.93 3.14 3.09 3.11 3.00 2.92 2.92 2.94 2.92 2.80 2.71 2.62 2.52 2.42 1.97 1.77 1.72 1.86 1.94 1.88 1.78 1.70 1.58 1.39 1.35 1.30 1.33 1.40 1.43 1.52 1.59 1.55 1.48 1.55 1.67 1.64 1.61 1.79 2.06 2.16
2.55 2.78 3.05 3.29 3.12 3.02 3.18 3.07 3.07 3.13 3.11 3.00 2.90 2.78 2.78 2.69 2.44 2.08 1.85 1.85 1.92 1.97 2.00 1.96 1.86 1.66 1.42 1.34 1.24 1.20 1.19 1.12 1.14 1.32 1.39 1.36 1.41 1.53 1.60 1.60 1.68 1.75 1.88
2.76 2.92 3.04 3.11 3.22 3.35 3.41 3.28 3.20 3.19 3.12 2.94 2.82 2.63 2.54 2.63 2.62 2.17 1.86 1.87 1.91 1.86 2.00 2.08 1.81 1.58 1.42 1.25 1.23 1.22 1.10 0.99 1.08 1.17 1.19 1.20 1.23 1.36 1.59 1.77 1.84 1.90 1.88
2.64 2.66 2.77 2.95 3.08 3.20 3.41 3.41 3.27 3.10 2.99 2.90 2.85 2.70 2.60 2.61 2.55 2.19 1.86 1.79 1.84 1.77 1.82 1.91 1.77 1.61 1.46 1.30 1.23 1.18 1.09 1.12 1.22 1.23 1.25 1.31 1.35 1.44 1.55 1.64 1.77 1.88 1.88
2.71 2.63 2.56 2.60 2.72 2.87 2.98 3.07 2.99 2.95 2.80 2.66 2.51 2.44 2.38 2.39 2.39 2.16 1.89 1.81 1.89 1.94 1.92 1.91 1.87 1.72 1.58 1.44 1.38 1.40 1.43 1.43 1.37 1.37 1.42 1.43 1.42 1.43 1.49 1.57 1.68 1.79 1.76
2.63 2.53 2.49 2.46 2.53 2.58 2.59 2.55 2.41 2.30 2.14 1.94 1.86 1.79 1.76 1.81 1.97 1.80 1.65 1.69 1.86 1.97 1.86 1.78 1.86 1.82 1.70 1.59 1.52 1.53 1.53 1.49 1.45 1.47 1.46 1.45 1.43 1.43 1.48 1.53 1.57 1.57 1.59
2.52 2.39 2.27 2.18 2.20 2.20 2.24 2.39 2.44 2.21 2.00 1.74 1.57 1.42 1.38 1.48 1.57 1.59 1.56 1.61 1.73 1.74 1.57 1.58 1.68 1.72 1.66 1.60 1.54 1.51 1.47 1.51 1.56 1.51 1.46 1.49 1.50 1.49 1.52 1.55 1.55 1.57 1.55
2.36 2.37 2.27 2.15 2.14 2.14 2.22 2.30 2.43 2.40 2.12 1.71 1.56 1.42 1.23 1.16 1.18 1.25 1.34 1.39 1.42 1.42 1.38 1.43 1.49 1.55 1.57 1.59 1.60 1.59 1.54 1.54 1.57 1.57 1.54 1.54 1.55 1.51 1.52 1.52 1.47 1.50 1.60
2.18 2.15 2.11 2.16 2.13 2.12 2.25 2.28 2.27 2.30 2.14 1.89 1.61 1.38 1.23 1.09 1.08 1.16 1.14 1.12 1.21 1.25 1.23 1.28 1.31 1.34 1.38 1.45 1.47 1.53 1.54 1.52 1.53 1.58 1.54 1.53 1.57 1.57 1.58 1.56 1.54 1.58 1.60
2.08 2.02 1.91 1.89 1.89 1.85 1.89 1.99 2.04 2.13 2.07 1.94 1.77 1.47 1.23 1.09 1.06 1.10 1.08 1.16 1.25 1.26 1.23 1.27 1.23 1.23 1.27 1.36 1.44 1.52 1.55 1.56 1.58 1.58 1.57 1.59 1.61 1.64 1.63 1.63 1.64 1.65 1.65
1.99 1.82 1.58 1.44 1.51 1.61 1.72 1.82 1.85 1.89 1.94 1.90 1.70 1.45 1.22 1.02 1.06 1.17 1.24 1.26 1.25 1.24 1.19 1.18 1.16 1.16 1.20 1.28 1.36 1.43 1.51 1.58 1.58 1.60 1.67 1.65 1.58 1.58 1.58 1.62 1.62 1.64 1.69
1.87 1.72 1.53 1.40 1.42 1.50 1.60 1.75 1.79 1.74 1.73 1.74 1.66 1.46 1.31 1.12 1.14 1.20 1.23 1.23 1.21 1.23 1.18 1.14 1.09 1.12 1.16 1.24 1.34 1.41 1.48 1.51 1.53 1.57 1.58 1.60 1.60 1.58 1.57 1.62 1.62 1.62 1.64
1.79 1.72 1.60 1.51 1.56 1.60 1.64 1.69 1.68 1.65 1.62 1.57 1.51 1.42 1.35 1.31 1.29 1.31 1.30 1.27 1.26 1.23 1.22 1.22 1.17 1.13 1.18 1.28 1.33 1.38 1.44 1.41 1.40 1.42 1.49 1.57 1.60 1.61 1.65 1.68 1.64 1.59 1.57
1.59 1.62 1.56 1.49 1.52 1.57 1.56 1.60 1.56 1.56 1.52 1.47 1.41 1.39 1.37 1.38 1.36 1.32 1.33 1.31 1.27 1.17 1.11 1.11 1.12 1.13 1.16 1.18 1.16 1.16 1.17 1.21 1.21 1.25 1.33 1.43 1.48 1.56 1.64 1.68 1.65 1.61 1.68
1.49 1.56 1.58 1.58 1.57 1.58 1.61 1.64 1.57 1.51 1.48 1.47 1.46 1.43 1.42 1.39 1.35 1.36 1.34 1.26 1.19 1.17 1.15 1.15 1.15 1.09 1.02 1.02 1.01 1.01 1.12 1.13 1.09 1.13 1.24 1.39 1.46 1.57 1.71 1.74 1.73 1.75 1.84
1.40 1.44 1.48 1.50 1.50 1.51 1.52 1.56 1.55 1.47 1.41 1.34 1.32 1.33 1.25 1.22 1.24 1.22 1.19 1.15 1.17 1.17 1.13 1.10 1.10 1.09 1.04 0.99 1.01 1.09 1.11 1.06 1.07 1.15 1.12 1.16 1.30 1.40 1.52 1.60 1.58 1.68 1.80